Location: Calberlah
(52.4230°N, 10.6240°E)
Time: 01:22:33
(UTC+00:00)

Terra - Pass Details

Date: 19 May 2025
Orbit: 690 x 691 km, 98.0° (Epoch: 23 June)

Event Time Altitude Azimuth Distance (km) Brightness Sun altitude
Exits shadow 20:50:12 - 195° (SSW) 2,773 4.5 -11.1°
Reaches altitude 10° 20:51:56 10° 203° (SSW) 2,140 4.0 -11.3°
Maximum altitude 20:56:04 31° 266° (W) 1,218 3.4 -11.6°
Drops below altitude 10° 21:00:15 10° 328° (NNW) 2,156 5.9 -12.0°
Sets 21:02:45 0° 339° (NNW) 3,078 7.0 -12.2°
